{"data":{"norad_id":69411,"epoch":"2026-09-20T03:12:53.058816Z","epoch_age_seconds":66581,"freshness":"FRESH","line1":"1 69411U 26125L   26263.13394744  .00000035  00000+0  35866-4 0  9990","line2":"2 69411  88.9866 270.3322 0001952 103.3741 256.7627 13.51027492 14771","mean_motion":13.51027492,"eccentricity":0.0001952,"inclination_deg":88.9866,"raan_deg":270.3322,"arg_perigee_deg":103.3741,"mean_anomaly_deg":256.7627,"bstar":3.5866e-5,"rev_number":1477,"period_min":106.58554385657,"perigee_km":1067.0269831847,"apogee_km":1069.9341426812,"semimajor_km":7446.6175629329,"source":"CELESTRAK","updated_at":"2026-09-20T09:00:24.867254Z"}}